GFSGL_850_temp_132.txt.gz
Temp
18 18 18 18 18 18 18 18 18 18 17 18 18 17 17 17 17 18 18 18 18 18 18 18 18 18 19 20 20 20 20 21 21 22 21 20 18 18 18 18 17 17 18
19 18 18 18 18 18 18 18 18 18 19 19 18 18 18 17 17 17 18 18 18 18 18 18 18 19 18 19 19 19 20 20 19 20 20 20 18 17 17 17 18 17 17
19 18 18 18 18 18 18 18 18 18 19 18 18 18 18 18 18 18 18 18 18 18 18 18 18 18 18 19 18 19 20 19 18 18 19 19 19 18 18 17 17 16 15
19 19 19 18 18 18 18 18 18 19 19 19 19 19 18 18 18 18 17 17 17 18 18 18 18 18 18 17 18 17 18 18 18 18 18 20 18 18 17 17 16 16 16
18 18 18 18 18 18 18 18 18 17 18 18 17 18 18 17 18 18 18 18 17 18 18 17 17 17 18 18 18 18 18 18 18 18 18 19 18 19 18 17 16 15 15
18 18 18 18 18 18 19 20 20 18 17 19 19 19 17 18 18 19 18 17 17 18 17 17 17 18 18 18 18 18 18 18 18 18 18 18 17 17 17 17 16 16 16
19 20 19 19 19 19 19 18 18 17 17 17 17 17 17 17 18 19 19 18 17 17 17 17 17 17 18 18 19 19 18 18 18 18 18 17 17 17 16 17 16 16 16
18 18 18 18 18 19 19 18 18 18 17 17 17 17 17 17 19 19 18 18 18 17 17 18 18 18 18 18 18 18 18 18 18 16 18 17 17 17 16 16 16 16 15
18 18 18 19 17 17 17 18 18 17 17 17 17 17 17 18 18 18 18 18 18 18 18 18 18 18 17 16 17 17 17 17 17 17 17 17 16 16 16 15 15 16 17
17 17 18 18 17 17 17 17 17 18 17 16 16 17 17 17 18 18 18 17 17 16 17 17 17 17 16 16 16 16 16 16 16 15 15 15 15 15 15 15 15 15 15
16 18 17 16 15 16 15 16 16 16 16 15 16 16 16 17 17 17 16 15 15 15 15 15 16 16 15 15 14 14 15 15 15 15 14 14 14 14 14 14 15 15 12
15 16 15 16 16 15 15 15 15 15 15 14 15 14 15 15 16 15 15 15 15 15 15 14 14 13 14 13 13 13 14 13 14 13 13 13 13 13 13 14 14 14 13
16 16 15 15 15 15 14 14 14 14 14 13 14 14 14 14 15 15 14 14 14 13 13 13 13 13 13 13 13 13 12 11 12 11 11 12 12 13 13 13 13 12 13
15 14 14 14 14 14 13 13 13 13 13 13 13 14 14 13 14 14 14 14 13 13 13 13 12 12 11 10 10 10 11 11 10 11 11 12 12 12 12 12 10 10 9
14 14 14 14 14 13 13 13 13 13 13 13 13 13 13 13 13 13 13 13 13 12 12 11 11 11 11 10 10 9 10 9 10 10 11 11 11 10 10 9 10 9 8
13 14 13 13 13 13 13 13 13 12 12 12 13 13 12 12 12 12 11 10 10 10 10 10 10 10 9 9 10 10 10 10 10 10 8 7 8 7 8 8 9 7 7
13 13 13 12 12 12 12 12 12 11 11 12 11 12 11 10 10 10 10 9 10 9 9 9 9 10 10 10 10 10 10 10 10 11 9 9 8 9 7 7 7 7 7
11 11 11 11 11 11 11 11 11 10 10 10 9 9 9 10 10 10 10 9 10 9 9 9 9 9 9 10 10 9 9 9 10 9 7 7 7 7 7 6 6 6 6
10 10 11 11 11 11 11 11 10 10 10 9 10 10 10 10 9 9 9 9 8 9 9 9 9 9 9 9 9 9 9 8 8 8 6 6 5 6 5 5 6 6 6
10 11 10 11 11 10 9 10 9 9 9 9 9 10 10 10 10 9 9 8 8 8 8 7 8 9 8 9 8 9 8 8 8 6 5 5 6 6 4 4 4 4 4
11 11 11 11 11 11 10 10 10 10 10 10 10 9 10 8 9 8 8 8 8 8 8 7 7 6 8 8 8 8 7 6 6 7 7 7 6 4 4 3 3 3 3
11 11 11 11 11 10 10 10 10 10 10 10 9 10 10 9 9 9 8 8 8 8 7 7 8 8 8 8 8 7 6 6 5 6 6 5 5 5 5 3 3 3 3
11 11 11 11 11 10 10 10 11 10 10 10 10 9 10 9 9 9 9 8 8 8 7 7 7 6 6 6 7 5 5 5 4 4 4 4 4 3 3 3 3 3 3
11 11 11 11 10 11 11 11 10 10 10 10 10 10 9 9 9 9 8 8 8 7 7 7 6 6 6 6 5 5 5 4 4 5 3 3 3 3 3 3 4 3 4
11 11 11 11 10 10 11 10 11 10 10 10 10 10 10 10 9 9 9 8 8 8 7 7 7 6 6 7 5 5 5 6 5 4 3 3 3 3 4 4 4 4 3
11 11 10 11 10 10 10 10 10 10 10 10 10 10 10 10 9 9 9 9 8 8 8 8 7 6 6 6 6 5 6 6 5 5 3 3 3 3 4 3 3 3 3

GFSGL_850_temp_138.txt.gz
Temp
19 19 19 19 19 19 19 19 20 20 19 19 20 19 19 19 19 19 19 19 19 19 20 20 20 20 20 21 21 21 22 22 22 22 21 21 20 20 19 19 19 19 18
20 20 19 19 19 19 19 19 19 20 19 20 18 19 18 19 19 19 19 19 19 19 19 19 20 20 20 20 20 21 21 22 21 21 21 21 19 19 19 18 19 19 18
21 20 20 20 19 20 19 19 20 20 20 20 19 19 19 19 19 19 19 20 20 19 19 20 20 20 19 19 20 19 20 20 20 20 20 20 19 18 18 17 18 17 17
21 20 20 20 20 20 20 20 19 19 20 19 19 19 19 19 19 19 19 19 19 19 19 19 20 20 20 19 19 19 20 20 19 19 19 19 18 18 18 17 17 16 17
21 21 21 21 20 20 20 20 19 19 19 19 19 19 19 19 19 19 19 19 19 19 19 19 19 19 19 19 19 19 19 19 19 19 19 19 18 18 18 17 17 16 16
21 21 21 20 20 20 20 19 19 19 19 19 19 18 19 19 19 19 19 19 19 19 19 19 19 19 19 19 19 19 18 18 18 19 19 19 19 18 17 17 18 17 16
18 19 19 19 19 20 19 19 19 19 19 19 19 19 19 19 19 19 19 19 18 19 19 19 19 19 19 19 19 19 19 19 18 19 18 18 17 17 18 17 17 17 16
18 18 19 19 18 19 19 19 19 19 19 19 19 19 19 18 19 19 19 18 18 19 19 18 18 18 18 18 18 18 19 19 18 18 18 18 18 18 17 18 17 17 16
17 18 18 18 19 18 18 18 18 18 19 19 19 18 18 18 18 18 18 18 18 18 18 18 18 18 18 18 17 16 16 17 17 17 17 17 17 17 17 16 16 16 15
16 16 17 17 17 17 17 17 18 18 17 18 18 18 17 17 17 18 18 18 18 17 16 17 17 17 17 18 17 16 16 16 16 16 16 16 16 16 15 15 15 16 15
16 15 16 16 16 16 16 16 16 17 17 17 16 16 16 17 17 17 17 17 17 17 16 16 16 16 16 16 16 15 15 15 14 14 14 14 14 14 14 14 14 14 14
15 15 15 14 14 15 14 16 17 16 16 16 15 15 15 15 15 15 15 16 16 16 16 15 15 15 15 14 14 14 13 12 11 11 11 11 12 12 13 13 13 13 13
15 14 15 15 14 14 15 14 17 16 16 16 14 14 14 14 14 14 14 14 14 15 15 15 14 14 14 14 13 13 13 13 11 11 11 11 11 11 11 11 10 10 11
14 14 13 13 14 14 15 15 14 14 14 14 14 14 14 14 14 13 14 13 14 14 14 14 13 13 13 13 13 13 12 11 11 10 10 10 10 10 10 10 10 11 11
14 14 13 13 14 14 14 14 13 14 14 14 13 13 14 14 14 13 13 13 13 13 13 13 13 12 12 12 12 11 10 10 10 10 9 9 9 9 9 8 9 10 10
13 14 14 14 13 14 13 13 13 13 13 13 13 13 13 12 12 12 13 13 12 13 12 12 12 12 11 11 10 10 9 9 9 9 10 9 10 9 8 9 9 9 9
13 13 13 13 13 13 13 13 13 13 13 12 12 12 12 12 11 11 11 11 11 11 10 11 11 10 10 10 10 9 9 9 9 8 8 8 8 8 8 8 9 9 8
13 12 12 12 12 12 12 12 12 12 12 11 11 11 11 11 10 9 9 9 9 9 9 9 9 9 9 9 9 10 10 9 8 9 9 9 8 8 8 8 8 8 8
11 11 11 12 12 11 11 11 10 10 10 11 10 10 10 10 10 10 10 9 9 9 9 9 9 9 9 9 9 9 9 9 9 9 9 8 8 8 8 8 8 8 8
12 12 11 12 12 11 11 11 11 11 11 11 10 11 11 11 11 10 10 10 9 9 9 9 9 9 9 9 9 9 9 9 9 8 7 7 7 7 7 7 7 7 7
13 12 12 13 13 13 12 12 12 12 12 12 11 11 11 10 9 10 10 10 9 10 10 9 9 8 8 8 9 9 8 8 7 7 7 7 6 7 7 6 6 6 6
14 14 13 14 14 13 13 13 13 12 12 12 11 11 11 11 10 10 10 10 10 10 10 9 9 8 8 7 8 8 7 7 7 7 7 6 6 6 6 6 6 5 5
14 15 15 14 14 14 13 13 13 13 13 13 12 12 12 11 11 10 10 10 10 9 9 9 9 8 8 8 7 7 7 7 7 7 6 6 6 6 6 6 5 5 5
13 15 15 15 14 14 14 13 13 14 14 14 13 13 12 11 11 12 11 11 10 10 9 9 8 8 8 8 7 7 6 6 6 6 5 5 5 5 5 5 5 5 6
13 13 14 14 14 14 13 13 14 14 13 13 13 13 13 12 12 12 11 11 10 10 10 9 9 8 8 8 7 7 7 7 7 6 5 5 5 5 6 5 6 6 6
13 14 14 14 14 14 13 13 13 13 13 13 13 13 12 12 12 12 12 11 11 11 10 10 10 9 9 8 8 8 8 7 7 6 6 5 5 5 5 5 6 6 6

GFSGL_850_temp_141.txt.gz
Temp
21 20 20 19 19 19 19 20 20 19 19 18 19 19 20 19 19 19 19 19 19 19 19 20 19 19 20 20 21 21 21 20 21 20 20 19 19 19 19 19 19 18 18
22 20 20 20 19 19 19 20 20 20 19 19 20 20 20 20 19 19 19 19 19 19 19 19 20 19 19 20 20 20 20 20 20 21 20 19 19 19 19 19 18 18 18
21 20 20 20 20 19 20 20 20 20 20 20 20 20 20 20 19 19 19 19 19 19 19 19 19 19 19 19 20 20 20 19 19 19 20 19 19 18 18 18 18 17 17
20 21 20 20 19 20 19 19 20 20 19 19 19 19 19 19 19 19 19 19 19 19 19 19 19 19 19 20 20 20 19 19 19 20 20 19 19 18 18 18 18 18 16
18 19 20 20 20 19 19 20 20 19 19 19 19 19 19 19 19 19 19 19 19 19 19 19 19 19 19 19 19 19 19 19 19 19 19 19 19 19 19 19 18 18 16
18 19 18 20 20 20 20 19 19 19 20 19 19 19 19 19 19 19 19 19 18 19 19 19 19 19 19 19 19 19 18 18 18 19 19 19 19 18 18 18 17 17 16
18 18 16 19 20 19 19 19 19 19 19 18 19 19 19 19 19 19 18 18 18 18 18 19 19 19 19 18 18 19 19 19 19 19 18 18 18 18 18 18 17 17 17
19 17 16 17 19 20 19 19 19 19 19 19 19 19 19 19 19 19 19 19 18 18 18 18 18 19 18 18 18 18 18 18 18 18 18 18 18 17 17 17 17 17 16
16 16 16 19 19 18 18 19 19 19 19 19 18 18 18 18 18 18 18 18 18 18 18 17 18 18 18 17 17 17 17 18 18 17 17 17 17 17 17 16 16 16 15
17 17 16 16 16 16 18 18 19 19 18 18 18 18 18 18 18 18 18 18 18 18 17 18 18 18 17 17 17 17 16 16 15 16 16 16 15 15 15 15 15 15 15
16 17 16 16 17 16 17 16 16 17 18 18 18 18 17 16 16 17 17 17 16 16 17 17 17 17 17 16 16 16 15 15 15 15 14 14 13 13 13 14 13 13 13
15 16 15 15 15 15 15 15 16 16 17 17 18 17 15 15 15 15 15 15 15 15 16 16 16 16 15 15 15 14 15 14 14 13 12 12 12 12 12 12 12 12 12
15 14 14 14 15 14 14 14 14 15 16 16 16 17 15 15 15 15 14 15 14 14 14 14 14 14 14 14 14 13 13 13 13 12 12 12 11 11 12 12 12 11 11
15 14 15 15 15 14 14 13 13 14 14 15 15 14 15 16 15 15 14 14 14 14 14 13 13 13 13 13 13 12 12 12 12 11 11 11 10 10 11 10 9 8 9
14 14 14 14 13 13 14 13 13 13 14 15 15 15 15 14 14 14 13 13 13 13 13 13 13 12 12 12 12 12 12 12 12 11 10 10 9 9 9 9 9 8 9
14 14 13 13 13 14 13 13 13 13 13 13 13 13 13 13 13 13 12 12 12 13 12 12 12 12 11 11 11 10 10 10 9 9 9 9 9 8 9 9 8 9 9
13 13 13 13 13 13 13 13 13 13 13 13 12 12 12 12 12 12 12 12 11 11 11 11 11 10 10 10 10 10 10 10 9 9 9 9 9 8 8 8 9 9 9
12 12 12 12 12 12 12 12 12 12 12 12 11 11 11 11 11 10 10 10 10 10 10 10 10 10 10 9 9 9 9 9 9 9 9 8 8 8 8 8 8 8 8
12 12 12 12 12 12 11 11 11 11 11 11 11 11 11 11 11 11 10 10 10 10 10 10 10 10 10 10 10 10 10 10 9 9 8 8 8 8 8 8 8 8 8
13 12 12 13 12 11 11 11 11 11 11 11 11 11 11 12 11 11 10 10 10 9 9 9 9 10 9 9 9 9 9 9 9 8 8 8 8 7 7 7 8 8 8
13 13 13 12 13 13 12 12 12 12 11 11 11 11 11 11 11 10 10 10 10 9 9 9 9 9 9 9 9 9 9 9 8 8 7 7 7 7 7 7 7 7 7
13 14 14 14 13 13 13 13 13 13 12 12 12 12 12 11 11 10 10 10 10 10 9 10 9 9 9 9 8 8 8 7 7 7 7 7 7 7 7 7 7 6 6
13 13 14 14 14 13 13 13 13 13 13 13 13 12 12 12 11 11 11 10 10 10 9 9 9 9 8 8 8 8 7 7 7 7 7 7 7 6 6 6 6 6 6
14 14 14 14 14 14 14 13 13 13 13 13 13 13 13 12 12 11 11 11 10 10 10 9 9 9 8 8 8 8 7 7 7 6 7 7 6 6 6 6 5 5 5
13 14 14 14 14 14 14 14 13 13 13 13 13 13 13 12 12 12 11 11 11 10 10 10 10 9 9 9 9 8 7 7 7 7 7 7 6 5 5 5 5 5 5
12 13 13 13 14 14 14 13 13 13 13 13 13 13 12 12 12 12 12 11 11 11 11 10 10 10 9 9 9 9 8 8 7 7 7 6 6 5 5 5 5 6 6

GFSGL_850_temp_144.txt.gz
Temp
20 20 20 20 19 19 19 19 19 19 20 20 20 20 19 19 19 18 19 18 19 19 19 20 20 19 20 19 19 20 20 20 20 20 20 19 19 19 19 18 17 17 18
21 20 20 20 20 20 19 19 19 19 19 19 20 19 19 19 19 19 19 19 19 19 19 19 19 19 19 19 19 19 19 19 19 20 19 19 19 18 18 18 17 17 17
20 20 19 19 19 19 20 20 19 19 19 19 19 19 19 19 19 19 19 19 19 19 19 19 19 19 19 19 19 19 19 19 19 19 19 18 18 18 18 18 18 17 17
19 19 19 18 19 19 19 19 20 20 19 19 19 19 19 19 19 19 19 19 19 19 19 19 19 19 19 19 19 19 19 19 19 19 19 19 18 18 18 17 18 17 16
18 18 19 18 18 19 19 19 20 19 19 19 19 19 19 19 19 19 19 19 18 19 19 18 19 19 19 19 19 19 18 19 19 19 19 19 19 18 18 18 17 16 16
16 17 18 18 18 18 19 19 19 19 19 19 19 19 19 19 19 19 19 19 19 19 19 19 18 18 18 18 18 18 18 18 19 19 19 18 18 18 18 17 17 17 16
15 17 17 17 19 18 18 19 19 19 19 19 19 19 19 19 19 19 19 19 19 19 18 18 18 18 18 18 18 18 18 18 18 18 18 18 18 18 18 17 17 17 17
15 16 17 18 18 19 19 18 19 19 19 19 19 19 19 18 18 18 18 18 18 18 18 18 18 18 18 18 18 18 18 18 18 18 18 18 18 18 17 17 17 16 16
15 16 19 17 18 19 19 17 18 18 18 19 18 18 18 18 18 18 18 18 18 18 18 17 18 17 18 18 18 18 17 17 18 17 17 17 17 17 17 17 17 16 16
18 18 16 16 17 20 19 15 17 18 18 18 19 19 18 18 18 18 18 18 17 17 17 17 18 18 18 17 17 17 17 17 16 16 15 15 16 16 16 16 16 15 15
17 17 17 16 16 16 15 16 17 18 18 18 18 18 18 18 18 19 18 18 18 16 16 17 17 17 17 17 17 16 16 15 15 15 15 14 14 14 13 13 13 13 12
15 15 15 15 15 15 15 15 15 15 15 16 16 16 17 17 17 17 17 16 16 15 16 16 16 16 16 16 15 15 15 15 14 14 13 12 12 12 12 12 12 12 12
14 14 14 14 14 15 15 13 13 13 14 14 15 15 16 15 15 15 15 15 15 14 14 14 14 14 14 14 14 13 13 13 13 12 12 12 12 12 12 11 12 11 11
14 14 14 14 14 14 14 13 13 13 13 13 14 14 14 14 15 14 14 14 14 14 14 13 13 12 12 13 13 12 13 12 12 12 11 11 11 11 10 10 10 9 8
14 14 14 14 14 14 13 13 15 14 13 13 13 13 13 13 13 14 14 13 13 12 13 13 12 12 12 12 12 12 12 11 11 11 10 10 10 10 9 9 8 8 8
14 13 13 14 14 14 12 13 13 13 13 12 13 13 13 13 13 13 13 12 12 12 12 12 12 11 11 11 11 11 11 11 10 10 10 10 9 9 8 8 8 8 8
13 13 13 13 13 13 13 12 12 12 12 12 12 12 12 12 12 12 12 12 12 12 11 11 11 11 10 10 10 11 10 10 9 9 9 9 9 9 8 8 8 9 8
13 13 13 13 12 12 12 12 12 11 12 12 12 12 11 12 12 11 11 11 11 11 10 10 10 10 10 9 10 10 9 9 9 9 9 9 9 9 8 8 8 8 8
12 13 12 12 12 11 12 12 12 12 12 12 12 12 12 12 12 11 10 10 10 10 10 10 10 9 9 9 9 9 9 9 9 9 9 8 8 8 8 8 8 8 8
13 13 13 13 12 12 12 12 12 12 12 12 12 12 12 12 12 11 11 10 10 10 9 9 9 10 10 10 9 9 9 9 9 9 8 8 8 8 8 8 8 8 7
13 13 13 13 13 12 12 12 12 12 12 12 12 12 12 11 11 11 11 10 10 10 9 9 9 9 9 9 9 9 9 9 9 8 8 8 8 8 7 7 7 7 7
12 13 13 13 13 13 13 13 13 13 13 13 12 12 12 12 11 11 10 10 9 9 9 9 9 9 9 9 9 9 8 8 8 8 7 7 7 7 7 6 6 6 6
13 13 13 13 13 13 13 13 13 13 13 13 13 13 12 12 12 11 11 10 10 10 10 10 9 9 9 8 8 8 8 8 7 7 7 7 6 6 6 6 6 6 6
13 13 13 14 14 14 14 13 13 13 13 13 13 12 12 12 12 12 11 11 11 10 10 10 10 9 9 9 8 8 8 8 8 7 7 7 7 6 6 6 6 6 5
13 14 13 14 14 14 14 13 13 13 13 13 13 13 13 12 12 12 11 11 11 11 11 10 10 10 10 10 9 9 9 9 8 8 7 7 7 7 6 6 5 5 5
13 13 13 13 13 13 14 13 13 13 13 13 13 13 13 13 12 12 11 11 11 11 11 10 10 10 10 10 9 9 9 9 8 8 7 7 7 7 6 6 5 5 5

GFSGL_850_temp_147.txt.gz
Temp
20 20 19 19 19 19 19 19 19 19 19 19 19 19 19 19 19 19 19 18 18 18 19 19 19 19 19 19 19 19 19 19 20 20 20 20 19 19 19 19 18 18 17
21 20 19 19 19 19 19 19 19 19 19 19 19 19 19 19 19 19 19 19 19 19 18 18 19 19 19 19 19 19 19 19 19 19 19 19 19 19 19 18 18 17 17
21 20 19 19 19 19 19 19 19 19 19 19 19 19 19 19 19 19 19 18 18 18 18 18 19 19 19 19 19 19 19 18 19 19 19 19 18 18 18 18 18 17 16
21 20 20 19 19 19 19 19 19 19 19 19 19 19 19 19 19 19 18 18 18 18 18 18 19 19 19 19 19 19 19 19 18 18 18 18 18 18 18 17 17 17 16
20 20 20 19 19 18 18 18 19 19 19 19 19 19 19 19 19 19 19 18 19 19 18 18 18 18 18 18 18 18 18 18 18 18 18 18 18 18 18 18 17 17 16
17 18 19 19 18 18 18 18 18 18 19 19 19 19 19 19 19 19 19 18 19 18 19 19 18 18 18 18 18 18 18 18 18 18 18 18 18 18 18 17 17 16 16
16 16 16 16 18 18 18 18 18 18 18 18 18 18 18 18 19 19 19 18 18 18 19 19 18 18 18 18 18 18 18 18 18 18 18 18 18 18 17 17 17 17 17
15 15 15 15 16 17 17 18 18 18 18 18 19 19 19 18 19 19 18 18 18 18 18 18 18 18 18 18 18 18 18 18 18 18 18 18 17 17 17 16 16 16 16
15 16 15 15 16 17 17 18 18 19 18 18 18 19 19 19 18 18 18 18 18 18 18 18 18 18 18 18 17 17 17 17 17 17 17 17 17 16 16 16 16 16 16
15 15 15 16 17 16 16 17 17 18 19 18 18 18 18 18 18 19 18 18 18 18 18 18 18 18 18 17 17 17 17 17 16 16 16 16 15 15 15 15 15 15 15
16 16 17 17 16 15 16 16 16 17 18 18 17 17 17 18 18 18 18 18 18 17 17 17 17 16 16 17 17 16 16 16 16 15 15 14 14 14 13 14 14 13 13
15 15 15 15 15 15 16 16 16 16 17 16 15 16 16 16 16 15 15 16 17 17 16 15 15 16 16 15 15 15 15 15 15 14 14 13 12 12 12 12 12 12 12
15 14 14 14 14 15 15 14 14 14 14 14 14 14 14 15 15 15 15 16 15 15 15 15 15 15 15 15 14 14 14 14 12 12 12 11 11 12 11 11 11 11 11
14 14 14 14 14 14 14 14 13 14 14 14 13 13 13 14 14 14 15 16 15 14 14 14 14 13 13 13 13 13 12 12 12 11 11 11 11 11 10 10 10 10 10
14 14 14 14 14 14 14 13 13 13 13 14 13 13 13 13 13 14 13 14 13 13 13 13 13 13 13 12 12 12 12 12 11 11 11 11 10 10 10 9 9 9 8
13 13 13 13 14 13 13 12 12 13 13 13 13 12 12 12 13 13 13 13 13 12 12 13 12 12 12 12 11 11 11 10 10 10 10 10 9 9 8 8 8 8 8
13 13 13 13 13 12 12 12 12 12 12 12 12 12 12 12 12 12 12 12 12 12 12 12 12 11 11 11 10 10 10 9 9 9 9 9 9 9 9 8 8 8 8
13 12 12 13 12 12 12 12 12 12 12 12 11 11 11 11 12 11 11 10 11 11 11 11 10 10 10 10 10 9 9 9 9 9 9 9 9 9 8 8 8 8 8
12 12 12 12 11 11 12 12 12 12 12 11 11 11 11 11 11 11 11 10 10 10 10 10 10 10 10 10 9 9 9 9 9 9 9 9 8 8 8 8 8 8 8
13 13 12 12 12 12 12 12 12 12 11 11 11 11 12 11 11 11 10 10 10 10 9 10 10 9 9 9 9 9 9 9 9 9 8 8 8 8 8 8 8 8 7
13 13 13 12 12 12 12 12 12 12 12 12 11 12 12 11 11 11 11 10 10 10 10 9 9 9 9 9 9 9 9 9 9 9 9 8 8 8 7 7 7 7 7
12 13 13 13 13 13 13 13 13 13 12 12 12 12 12 12 11 11 11 10 10 10 10 9 9 9 9 9 9 9 9 9 9 8 8 8 7 7 7 7 7 6 6
13 13 13 13 13 13 13 13 13 13 13 12 12 12 12 12 12 11 11 10 10 10 10 9 9 9 9 8 8 9 8 8 8 8 7 7 7 7 6 6 6 6 5
13 13 13 13 13 14 13 13 13 13 13 13 13 13 12 12 12 12 11 11 11 10 10 10 10 10 9 9 9 9 9 9 8 8 7 7 7 6 6 6 6 5 5
13 13 13 13 13 14 14 13 13 13 13 13 13 13 13 12 12 12 12 11 11 11 11 10 10 10 10 10 9 9 9 9 8 8 8 7 7 7 7 6 5 5 5
13 12 12 12 13 13 14 14 13 13 13 13 13 13 13 13 12 12 12 11 11 11 11 11 10 10 10 10 9 9 9 8 8 8 8 8 7 7 7 6 6 5 5